Time,TemperatureF,DewpointF,PressureIn,WindDirection,WindDirectionDegrees,WindSpeedMPH,WindSpeedGustMPH,Humidity,HourlyPrecipIn,Conditions,Clouds,dailyrainin,SoftwareType,DateUTC
2013-02-12 00:02:00,78.3,70.0,29.96,ESE,104,7.0,11.0,75,0.00,,,0.00,weatherlink.com 1.10,2013-02-12 04:02:00,
2013-02-12 00:17:00,78.4,70.0,29.96,ENE,73,2.0,13.0,75,0.00,,,0.00,weatherlink.com 1.10,2013-02-12 04:17:00,
2013-02-12 00:33:00,78.2,70.0,29.96,East,80,0.0,8.0,76,0.00,,,0.00,weatherlink.com 1.10,2013-02-12 04:33:00,
2013-02-12 00:48:00,78.3,70.0,29.96,ENE,71,3.0,11.0,75,0.00,,,0.00,weatherlink.com 1.10,2013-02-12 04:48:00,
2013-02-12 01:03:00,78.4,70.0,29.95,ESE,105,7.0,11.0,76,0.00,,,0.00,weatherlink.com 1.10,2013-02-12 05:03:00,
2013-02-12 01:18:00,77.4,72.0,29.95,NE,53,5.0,10.0,83,0.01,,,0.01,weatherlink.com 1.10,2013-02-12 05:18:00,
2013-02-12 01:33:00,76.7,72.0,29.94,NNE,26,3.0,10.0,84,0.01,,,0.01,weatherlink.com 1.10,2013-02-12 05:33:00,
2013-02-12 01:48:00,76.7,71.0,29.94,ENE,61,2.0,10.0,83,0.01,,,0.01,weatherlink.com 1.10,2013-02-12 05:48:00,
2013-02-12 02:03:00,77.1,71.0,29.93,ENE,59,11.0,12.0,82,0.01,,,0.01,weatherlink.com 1.10,2013-02-12 06:03:00,
2013-02-12 02:18:00,77.5,71.0,29.93,ENE,57,3.0,10.0,79,0.00,,,0.01,weatherlink.com 1.10,2013-02-12 06:18:00,
2013-02-12 02:33:00,77.6,71.0,29.93,ENE,59,2.0,9.0,79,0.00,,,0.01,weatherlink.com 1.10,2013-02-12 06:33:00,
2013-02-12 02:48:00,77.6,71.0,29.93,ENE,65,3.0,10.0,80,0.00,,,0.01,weatherlink.com 1.10,2013-02-12 06:48:00,
2013-02-12 03:03:00,77.7,70.0,29.92,East,83,10.0,13.0,78,0.00,,,0.01,weatherlink.com 1.10,2013-02-12 07:03:00,
2013-02-12 03:18:00,77.5,70.0,29.92,ENE,67,9.0,13.0,78,0.00,,,0.01,weatherlink.com 1.10,2013-02-12 07:18:00,
2013-02-12 03:33:00,77.7,71.0,29.92,ENE,74,7.0,12.0,80,0.00,,,0.01,weatherlink.com 1.10,2013-02-12 07:33:00,
2013-02-12 03:48:00,77.7,70.0,29.92,ENE,76,7.0,12.0,78,0.00,,,0.01,weatherlink.com 1.10,2013-02-12 07:48:00,
2013-02-12 04:03:00,77.6,70.0,29.92,East,94,3.0,11.0,77,0.00,,,0.01,weatherlink.com 1.10,2013-02-12 08:03:00,
2013-02-12 04:18:00,77.6,70.0,29.91,East,86,5.0,13.0,78,0.00,,,0.01,weatherlink.com 1.10,2013-02-12 08:18:00,
2013-02-12 04:33:00,77.7,70.0,29.92,ENE,74,4.0,12.0,78,0.00,,,0.01,weatherlink.com 1.10,2013-02-12 08:33:00,
2013-02-12 04:48:00,77.9,71.0,29.92,ENE,69,3.0,12.0,79,0.00,,,0.01,weatherlink.com 1.10,2013-02-12 08:48:00,
2013-02-12 05:03:00,77.3,71.0,29.92,NE,40,4.0,7.0,81,0.00,,,0.01,weatherlink.com 1.10,2013-02-12 09:03:00,
2013-02-12 05:18:00,77.3,70.0,29.92,ESE,104,8.0,10.0,79,0.00,,,0.01,weatherlink.com 1.10,2013-02-12 09:18:00,
2013-02-12 05:33:00,77.2,71.0,29.92,East,92,8.0,9.0,81,0.00,,,0.01,weatherlink.com 1.10,2013-02-12 09:33:00,
2013-02-12 05:48:00,77.3,71.0,29.92,East,84,5.0,9.0,80,0.00,,,0.01,weatherlink.com 1.10,2013-02-12 09:48:00,
2013-02-12 06:03:00,77.2,71.0,29.92,East,90,2.0,8.0,81,0.00,,,0.01,weatherlink.com 1.10,2013-02-12 10:03:00,
2013-02-12 06:18:00,77.2,70.0,29.93,ENE,70,4.0,14.0,78,0.00,,,0.01,weatherlink.com 1.10,2013-02-12 10:18:00,
2013-02-12 06:33:00,77.9,69.0,29.93,East,95,8.0,13.0,75,0.00,,,0.01,weatherlink.com 1.10,2013-02-12 10:33:00,
2013-02-12 06:48:00,77.8,70.0,29.94,East,85,3.0,12.0,76,0.00,,,0.01,weatherlink.com 1.10,2013-02-12 10:48:00,
2013-02-12 07:03:00,78.1,70.0,29.94,East,90,9.0,11.0,77,0.00,,,0.01,weatherlink.com 1.10,2013-02-12 11:03:00,
2013-02-12 07:18:00,78.1,71.0,29.95,NE,54,5.0,10.0,79,0.00,,,0.01,weatherlink.com 1.10,2013-02-12 11:18:00,
2013-02-12 07:33:00,78.4,71.0,29.95,ENE,65,11.0,12.0,79,0.00,,,0.01,weatherlink.com 1.10,2013-02-12 11:33:00,
2013-02-12 07:48:00,79.3,71.0,29.95,ENE,69,13.0,18.0,75,0.00,,,0.01,weatherlink.com 1.10,2013-02-12 11:48:00,
2013-02-12 08:03:00,79.6,71.0,29.96,ENE,75,10.0,14.0,76,0.00,,,0.01,weatherlink.com 1.10,2013-02-12 12:03:00,
2013-02-12 08:18:00,79.6,71.0,29.96,East,88,9.0,14.0,76,0.00,,,0.01,weatherlink.com 1.10,2013-02-12 12:18:00,
2013-02-12 08:33:00,79.3,72.0,29.96,East,87,9.0,13.0,77,0.00,,,0.01,weatherlink.com 1.10,2013-02-12 12:33:00,
2013-02-12 08:48:00,80.5,72.0,29.96,NE,45,7.0,13.0,76,0.00,,,0.01,weatherlink.com 1.10,2013-02-12 12:48:00,
2013-02-12 09:03:00,81.2,72.0,29.97,ENE,73,11.0,16.0,73,0.00,,,0.01,weatherlink.com 1.10,2013-02-12 13:03:00,
2013-02-12 09:18:00,81.8,72.0,29.98,ESE,116,9.0,18.0,71,0.00,,,0.01,weatherlink.com 1.10,2013-02-12 13:18:00,
2013-02-12 09:33:00,82.7,72.0,29.98,East,94,13.0,15.0,70,0.00,,,0.01,weatherlink.com 1.10,2013-02-12 13:33:00,
2013-02-12 09:48:00,83.6,72.0,29.98,East,96,16.0,16.0,69,0.00,,,0.01,weatherlink.com 1.10,2013-02-12 13:48:00,
2013-02-12 10:03:00,82.9,72.0,29.99,East,82,19.0,19.0,69,0.00,,,0.01,weatherlink.com 1.10,2013-02-12 14:03:00,
2013-02-12 10:18:00,81.4,72.0,30.00,East,90,15.0,17.0,72,0.00,,,0.01,weatherlink.com 1.10,2013-02-12 14:18:00,
2013-02-12 10:33:00,83.0,71.0,29.99,ENE,74,7.0,17.0,68,0.00,,,0.01,weatherlink.com 1.10,2013-02-12 14:33:00,
2013-02-12 10:48:00,83.9,72.0,29.99,NE,54,7.0,16.0,68,0.00,,,0.01,weatherlink.com 1.10,2013-02-12 14:48:00,
2013-02-12 11:03:00,82.5,72.0,30.00,ESE,104,2.0,15.0,70,0.00,,,0.01,weatherlink.com 1.10,2013-02-12 15:03:00,
2013-02-12 11:18:00,83.0,72.0,29.99,ESE,103,12.0,19.0,69,0.00,,,0.01,weatherlink.com 1.10,2013-02-12 15:18:00,
2013-02-12 11:34:00,84.4,72.0,29.99,SE,131,8.0,17.0,67,0.00,,,0.01,weatherlink.com 1.10,2013-02-12 15:34:00,
2013-02-12 11:49:00,84.7,73.0,29.98,East,89,6.0,16.0,67,0.00,,,0.01,weatherlink.com 1.10,2013-02-12 15:49:00,
2013-02-12 12:04:00,85.2,74.0,29.98,ESE,115,4.0,15.0,68,0.00,,,0.01,weatherlink.com 1.10,2013-02-12 16:04:00,
2013-02-12 12:19:00,85.2,73.0,29.97,ESE,114,9.0,17.0,67,0.00,,,0.01,weatherlink.com 1.10,2013-02-12 16:19:00,
2013-02-12 12:34:00,85.2,73.0,29.97,NE,38,7.0,14.0,66,0.00,,,0.01,weatherlink.com 1.10,2013-02-12 16:34:00,
2013-02-12 12:49:00,80.5,72.0,29.97,ESE,123,4.0,14.0,75,0.00,,,0.01,weatherlink.com 1.10,2013-02-12 16:49:00,
2013-02-12 13:04:00,81.0,72.0,29.96,ESE,113,5.0,14.0,75,0.00,,,0.01,weatherlink.com 1.10,2013-02-12 17:04:00,
2013-02-12 13:19:00,76.3,71.0,29.95,East,82,6.0,15.0,83,0.08,,,0.09,weatherlink.com 1.10,2013-02-12 17:19:00,
2013-02-12 13:34:00,77.8,75.0,29.95,East,93,7.0,11.0,90,0.08,,,0.09,weatherlink.com 1.10,2013-02-12 17:34:00,
2013-02-12 13:49:00,77.2,73.0,29.95,ENE,63,2.0,12.0,86,0.08,,,0.09,weatherlink.com 1.10,2013-02-12 17:49:00,
2013-02-12 14:19:00,81.1,74.0,29.93,East,84,7.0,17.0,79,0.00,,,0.09,weatherlink.com 1.10,2013-02-12 18:19:00,
2013-02-12 14:34:00,81.6,74.0,29.92,East,91,3.0,11.0,78,0.00,,,0.09,weatherlink.com 1.10,2013-02-12 18:34:00,
2013-02-12 14:49:00,81.6,73.0,29.91,East,92,3.0,18.0,76,0.00,,,0.09,weatherlink.com 1.10,2013-02-12 18:49:00,
2013-02-12 15:04:00,83.4,73.0,29.91,East,96,7.0,18.0,71,0.00,,,0.09,weatherlink.com 1.10,2013-02-12 19:04:00,
2013-02-12 15:19:00,82.8,73.0,29.91,East,86,9.0,19.0,71,0.00,,,0.09,weatherlink.com 1.10,2013-02-12 19:19:00,
2013-02-12 15:34:00,82.5,72.0,29.91,ENE,73,13.0,16.0,71,0.00,,,0.09,weatherlink.com 1.10,2013-02-12 19:34:00,
2013-02-12 15:49:00,83.1,72.0,29.90,ESE,111,3.0,17.0,69,0.00,,,0.09,weatherlink.com 1.10,2013-02-12 19:49:00,
2013-02-12 16:04:00,82.9,72.0,29.90,SE,135,8.0,16.0,70,0.00,,,0.09,weatherlink.com 1.10,2013-02-12 20:04:00,
2013-02-12 16:19:00,80.2,74.0,29.90,East,90,9.0,15.0,81,0.03,,,0.12,weatherlink.com 1.10,2013-02-12 20:19:00,
2013-02-12 16:34:00,79.3,74.0,29.90,East,80,6.0,12.0,83,0.03,,,0.12,weatherlink.com 1.10,2013-02-12 20:34:00,
2013-02-12 16:49:00,80.2,73.0,29.90,NE,40,8.0,14.0,79,0.03,,,0.12,weatherlink.com 1.10,2013-02-12 20:49:00,
2013-02-12 17:04:00,80.3,73.0,29.90,East,91,8.0,15.0,77,0.03,,,0.12,weatherlink.com 1.10,2013-02-12 21:04:00,
2013-02-12 17:19:00,80.9,72.0,29.90,East,93,7.0,12.0,75,0.00,,,0.12,weatherlink.com 1.10,2013-02-12 21:19:00,
2013-02-12 17:34:00,78.8,71.0,29.91,NE,48,4.0,17.0,77,0.00,,,0.12,weatherlink.com 1.10,2013-02-12 21:34:00,
2013-02-12 17:49:00,78.9,72.0,29.91,East,97,1.0,11.0,80,0.00,,,0.12,weatherlink.com 1.10,2013-02-12 21:49:00,
2013-02-12 18:04:00,79.1,72.0,29.91,SE,134,7.0,14.0,78,0.00,,,0.12,weatherlink.com 1.10,2013-02-12 22:04:00,
2013-02-12 18:19:00,79.0,72.0,29.91,SE,128,4.0,12.0,78,0.00,,,0.12,weatherlink.com 1.10,2013-02-12 22:19:00,
2013-02-12 18:34:00,78.8,72.0,29.91,East,100,8.0,13.0,79,0.00,,,0.12,weatherlink.com 1.10,2013-02-12 22:34:00,
2013-02-12 18:49:00,78.9,72.0,29.91,NE,56,1.0,11.0,79,0.00,,,0.12,weatherlink.com 1.10,2013-02-12 22:49:00,
2013-02-12 19:04:00,78.9,71.0,29.91,East,98,7.0,14.0,77,0.00,,,0.12,weatherlink.com 1.10,2013-02-12 23:04:00,
2013-02-12 19:19:00,79.0,72.0,29.91,ENE,74,5.0,8.0,78,0.00,,,0.12,weatherlink.com 1.10,2013-02-12 23:19:00,
2013-02-12 19:34:00,77.7,73.0,29.91,ENE,64,2.0,9.0,84,0.01,,,0.13,weatherlink.com 1.10,2013-02-12 23:34:00,
2013-02-12 19:49:00,77.6,71.0,29.92,ENE,63,7.0,10.0,81,0.01,,,0.13,weatherlink.com 1.10,2013-02-12 23:49:00,
2013-02-12 20:04:00,78.1,71.0,29.92,NE,47,4.0,11.0,79,0.01,,,0.13,weatherlink.com 1.10,2013-02-13 00:04:00,
2013-02-12 20:19:00,78.2,72.0,29.93,NE,52,1.0,9.0,80,0.01,,,0.13,weatherlink.com 1.10,2013-02-13 00:19:00,
2013-02-12 20:34:00,77.8,72.0,29.93,NE,53,6.0,13.0,82,0.00,,,0.13,weatherlink.com 1.10,2013-02-13 00:34:00,
2013-02-12 20:49:00,77.7,71.0,29.93,NNE,19,5.0,10.0,81,0.00,,,0.13,weatherlink.com 1.10,2013-02-13 00:49:00,
2013-02-12 21:04:00,78.1,72.0,29.94,East,80,10.0,13.0,80,0.00,,,0.13,weatherlink.com 1.10,2013-02-13 01:04:00,
2013-02-12 21:19:00,78.3,71.0,29.94,East,88,3.0,11.0,79,0.00,,,0.13,weatherlink.com 1.10,2013-02-13 01:19:00,
2013-02-12 21:34:00,78.1,71.0,29.94,ENE,76,7.0,12.0,78,0.00,,,0.13,weatherlink.com 1.10,2013-02-13 01:34:00,
2013-02-12 21:49:00,78.3,70.0,29.95,East,99,8.0,14.0,76,0.00,,,0.13,weatherlink.com 1.10,2013-02-13 01:49:00,
2013-02-12 22:04:00,78.3,70.0,29.95,NE,42,7.0,13.0,76,0.00,,,0.13,weatherlink.com 1.10,2013-02-13 02:04:00,
2013-02-12 22:19:00,78.5,70.0,29.95,ENE,71,4.0,16.0,75,0.00,,,0.13,weatherlink.com 1.10,2013-02-13 02:19:00,
2013-02-12 22:34:00,78.4,70.0,29.95,ENE,71,5.0,13.0,75,0.00,,,0.13,weatherlink.com 1.10,2013-02-13 02:34:00,
2013-02-12 22:49:00,78.4,71.0,29.95,East,81,6.0,13.0,77,0.00,,,0.13,weatherlink.com 1.10,2013-02-13 02:49:00,
2013-02-12 23:04:00,78.5,71.0,29.95,East,82,11.0,14.0,77,0.00,,,0.13,weatherlink.com 1.10,2013-02-13 03:04:00,
2013-02-12 23:19:00,78.4,70.0,29.95,NE,52,6.0,15.0,76,0.00,,,0.13,weatherlink.com 1.10,2013-02-13 03:19:00,
2013-02-12 23:34:00,78.4,71.0,29.95,East,90,7.0,12.0,77,0.00,,,0.13,weatherlink.com 1.10,2013-02-13 03:34:00,
2013-02-12 23:49:00,78.3,71.0,29.95,NE,55,2.0,14.0,77,0.00,,,0.13,weatherlink.com 1.10,2013-02-13 03:49:00,